Overview Statistics Trail Chart Weather Telemetry Raw packets
 

This is the latest recevied weather packets stored in our database for station/object EA1IDU-12. If no packets are shown the sender has not sent any weather packets the latest 10 day(s).

<< 23 24 25 26 27 28 29 >>
Time Temp. Humidity Pressure Rain* Wind** Luminosity Snow
1788068399 11.11° C 63% 1027.3 hPa - - - -
1788067499 11.11° C 63% 1027.4 hPa - - - -
1788066599 11.11° C 63% 1027.3 hPa - - - -
1788065698 10.56° C 62% 1027.4 hPa - - - -
1788064798 10.56° C 61% 1027.4 hPa - - - -
1788063916 10.56° C 60% 1027.6 hPa - - - -
1788063016 10.56° C 60% 1027.5 hPa - - - -
1788062116 10.56° C 60% 1027.6 hPa - - - -
1788061216 11.11° C 58% 1027.7 hPa - - - -
1788060315 11.11° C 58% 1027.7 hPa - - - -
1788059415 11.11° C 57% 1028 hPa - - - -
1788058705 11.11° C 58% 1028 hPa - - - -
1788057615 11.67° C 57% 1028.1 hPa - - - -
1788056715 11.67° C 56% 1028.1 hPa - - - -
1788055835 11.67° C 55% 1028.2 hPa - - - -
1788054914 11.67° C 55% 1028.4 hPa - - - -
1788054014 12.22° C 55% 1028.4 hPa - - - -
1788053114 12.22° C 54% 1028.5 hPa - - - -
1788052214 12.78° C 53% 1028.5 hPa - - - -
1788051313 12.78° C 53% 1028.5 hPa - - - -
1788050413 12.78° C 52% 1028.5 hPa - - - -
1788049513 13.33° C 52% 1028.5 hPa - - - -
1788048613 13.33° C 51% 1028.7 hPa - - - -
1788047713 13.89° C 51% 1028.7 hPa - - - -
1788046813 14.44° C 50% 1028.6 hPa - - - -

* Rain since midnight (hover to see other rain measurements)
** Current wind speed in m/s (hover to see current wind gust speed)